Regional Weather Roundup
Issued by NWS Jackson, KY

Home | Current Version | Previous Version | Graphics & Text | Print | Product List | Glossary On
Versions: 1 2 3 4 5 6 7 8 9 10 11 12 13 14 15 16 17 18 19 20 21 22 23 24 25 26 27 28 29 30 31 32 33 34 35 36 37 38 39 40 41 42 43 44 45 46 47 48 49 50
000
ASUS43 KJKL 272010
RWRJKL

EAST KENTUCKY HOURLY WEATHER ROUNDUP
NATIONAL WEATHER SERVICE JACKSON KY
300 PM EST FRI FEB 27 2015

NOTE: "FAIR" INDICATES FEW OR NO CLOUDS BELOW 12,000 FEET WITH
NO SIGNIFICANT WEATHER AND/OR OBSTRUCTIONS TO VISIBILITY.

* THESE REPORTS ARE NOT UNDER NWS QUALITY CONTROL AND MAY NOT
  REPORT WEATHER SUCH AS PRECIPITATION AND FOG.

KYZ079-080-083-085-087-088-110-112-115-119-120-272100
...EASTERN KENTUCKY...

CITY           SKY/WX    TMP DP  RH WIND       PRES   REMARKS
JACKSON        SUNNY     25   5  42 CALM      30.49S
LONDON         SUNNY     26   4  38 VRB3      30.50S
SOMERSET*      SUNNY     23   9  54 N6        30.55F WCI  16
MONTICELLO*    SUNNY     27  10  48 NE3       30.56S
MIDDLESBORO*   SUNNY     29  12  48 NW8       30.48F WCI  21
HAZARD APT*    PTCLDY    28   9  43 CALM      30.50R
BLACK MTN*       N/A     28  14  54 N6          N/A  WCI  22
PIKEVILLE APT* CLOUDY    23   9  54 N3        30.49R
BIG SANDY*     CLOUDY    27   9  46 E3        30.51S
MOREHEAD APT*  CLEAR     21   3  45 N6        30.57S WCI  14
$$

KYZ035-036-041-042-044-050-067-078-099-272100
...CENTRAL KENTUCKY...

CITY           SKY/WX    TMP DP  RH WIND       PRES   REMARKS
MT STERLING*   MOSUNNY   21   9  58 CALM      30.57S
FLEMING/MASON* PTSUNNY   19   5  53 NE6       30.57F WCI  11
DANVILLE*      SUNNY     21   9  58 N3        30.56S
RICHMOND*      PTSUNNY   21   7  53 NE6       30.55S WCI  14
LEXINGTON      SUNNY     22   4  46 N8        30.56S WCI  12
FRANKFORT      SUNNY     23   1  38 NE7       30.56S WCI  15
$$

KYZ091>093-OHZ055-061-077-WVZ005-015-034-035-042-272100
...SOUTHERN OHIO/WEST VIRGINIA...

CITY           SKY/WX    TMP DP  RH WIND       PRES   REMARKS
COVINGTON      MOSUNNY   20   0  41 NW3       30.56F
COLUMBUS       PTSUNNY   17   0  47 W9        30.57S WCI   6
DAYTON         PTSUNNY   20   5  52 N9        30.57S WCI   9
WILMINGTON     MIX PCPN  17  -2  43 NW9       30.55S WCI   6
HUNTINGTON     PTSUNNY   20   4  50 VRB6      30.56S WCI  12
CHARLESTON     PTSUNNY   21   5  50 NW7       30.54R WCI  12
PINEVILLE*     MOSUNNY   29  13  52 MISG      30.48F
BECKLEY        CLOUDY    21   8  57 N12       30.37R WCI   9
BLUEFIELD      MOSUNNY   25   9  50 W13       30.34S WCI  14
$$

VAZ002-007-008-TNZ017-027-036-066-071-272100
...SOUTHWEST VIRGINIA/EAST TENNESSEE...

CITY           SKY/WX    TMP DP  RH WIND       PRES   REMARKS
WISE*          PTSUNNY   27  10  50 N6        30.38R WCI  20
JONESVILLE*    CLEAR     32  10  40 NE5       30.46S WCI  27
ABINGDON*      CLOUDY    32  15  49 W7        30.38S WCI  26
BRISTOL        CLOUDY    32  23  69 CALM      30.43R
KNOXVILLE      MOSUNNY   33  16  49 N8        30.45F WCI  26
OAK RIDGE      SUNNY     36  16  44 NE6       30.47F WCI  31
CROSSVILLE     SUNNY     28  11  48 NE8       30.42S WCI  20
NASHVILLE      MOSUNNY   32  11  41 NE8       30.53F WCI  25
$$

...KEY TO REMARKS...
VSB - VISIBILITY IN MILES
WCI - WIND CHILL INDEX
HX  - HEAT INDEX

$$



USA.gov is the U.S. government's official web portal to all federal, state and local government web resources and services.